This demonstration page uses our WeatherBlox Daily Observations layout. Learn more.

Left ArrowRight Arrow

Hourly Observations for August 2, 2021

Temp ( °F °C ) Dew Point ( °F °C ) Humidity (%) Winds ( mph kmh ) Pressure ( in mb ) Visibility ( mi km ) Precip ( " mm )
12:08 am 00:08 Cloudy with Rain 67 19.4 66 18.9 97 97 NE 15 24 30.14 1021 2 3 0.11 2.79
12:19 am 00:19 Cloudy with Rain 67 19.4 66 18.9 97 97 ENE 10 17 30.14 1021 3 5 0.15 3.81
12:31 am 00:31 Cloudy with Thunderstorms 68 20 66 18.9 93 93 E 10 17 30.13 1020 6 10 0.17 4.32
3:53 am 03:53 Clear 68 20 67 19.4 96 96 N 7 11 30.07 1018 10 16 0.01 0.25
4:23 am 04:23 Mostly Clear 68 20 66 18.9 93 93 NNW 10 17 30.09 1019 10 16 0.00 0.00
4:53 am 04:53 Partly Cloudy 68 20 65 18.3 90 90 NW 8 13 30.06 1018 10 16 0.00 0.00
5:35 am 05:35 Mostly Cloudy 68 20 66 18.9 93 93 N 7 11 30.08 1019 10 16 0.00 0.00
5:53 am 05:53 Mostly Cloudy 69 20.6 66 18.9 90 90 NW 3 6 30.06 1018 10 16 0.00 0.00
6:01 am 06:01 Mostly Cloudy 69 20.6 66 18.9 90 90 NW 3 6 30.06 1018 10 16 0.00 0.00
6:17 am 06:17 Mostly Cloudy 69 20.6 66 18.9 90 90 NNW 5 7 30.07 1018 10 16 0.00 0.00
6:53 am 06:53 Cloudy 69 20.6 67 19.4 93 93 NW 5 7 30.07 1018 10 16 0.00 0.00
7:53 am 07:53 Cloudy 70 21.1 67 19.4 90 90 NNW 5 7 30.09 1019 10 16 0.00 0.00
8:16 am 08:16 Cloudy 71 21.7 67 19.4 87 87 NNW 8 13 30.09 1019 10 16 0.00 0.00
8:46 am 08:46 Cloudy 71 21.7 67 19.4 87 87 N 7 11 30.09 1019 10 16 0.00 0.00
8:53 am 08:53 Cloudy 72 22.2 68 20 87 87 N 8 13 30.10 1019 10 16 0.00 0.00
9:13 am 09:13 Cloudy 73 22.8 68 20 84 84 NNE 9 15 30.09 1019 10 16 0.00 0.00
9:34 am 09:34 Cloudy 73 22.8 68 20 84 84 NNE 12 19 30.09 1019 10 16 0.00 0.00
9:53 am 09:53 Cloudy 73 22.8 68 20 84 84 NNE 14 22 30.11 1020 10 16 0.00 0.00
10:13 am 10:13 Cloudy 73 22.8 67 19.4 81 81 NNE 16 26 30.09 1019 9 14 0.00 0.00
10:24 am 10:24 Cloudy with Light Rain 71 21.7 68 20 90 90 NE 9 15 30.10 1019 2 3 0.02 0.51
10:34 am 10:34 Cloudy with Light Rain 71 21.7 68 20 90 90 NE 9 15 30.10 1019 3 5 0.03 0.76
10:53 am 10:53 Cloudy with Mist and Fog 72 22.2 69 20.6 91 91 ENE 8 13 30.11 1020 6 10 0.03 0.76
11:00 am 11:00 Cloudy with Mist and Fog 72 22.2 68 20 87 87 NNE 13 20 30.10 1019 6 10 0.00 0.00
11:53 am 11:53 Cloudy with Haze 77 25 67 19.4 71 71 NE 14 22 30.11 1020 6 10 0.00 0.00
12:53 pm 12:53 Cloudy 79 26.1 66 18.9 65 65 NE 17 28 30.09 1019 7 11 0.00 0.00
1:53 pm 13:53 Mostly Cloudy 80 26.7 64 17.8 58 58 NE 13 20 30.08 1019 7 11 0.00 0.00
2:53 pm 14:53 Cloudy with Haze 80 26.7 62 16.7 54 54 ENE 13 20 30.06 1018 5 8 0.00 0.00
3:53 pm 15:53 Cloudy with Haze 81 27.2 61 16.1 51 51 NNE 8 13 30.04 1017 6 10 0.00 0.00
4:53 pm 16:53 Mostly Sunny 85 29.4 61 16.1 45 45 ENE 9 15 30.00 1016 7 11 0.00 0.00
5:53 pm 17:53 Partly Cloudy 84 28.9 60 15.6 44 44 NE 12 19 29.98 1015 7 11 0.00 0.00
6:53 pm 18:53 Mostly Sunny 83 28.3 59 15 44 44 ENE 12 19 29.99 1016 7 11 0.00 0.00
7:53 pm 19:53 Partly Cloudy 82 27.8 59 15 46 46 N 8 13 29.98 1015 7 11 0.00 0.00
8:53 pm 20:53 Mostly Clear 77 25 60 15.6 56 56 undefined N/A 30.00 1016 8 13 0.00 0.00
9:53 pm 21:53 Mostly Cloudy 76 24.4 62 16.7 62 62 NE 6 9 30.02 1017 8 13 0.00 0.00
10:53 pm 22:53 Partly Cloudy 75 23.9 61 16.1 62 62 ENE 7 11 30.05 1018 8 13 0.00 0.00
11:53 pm 23:53 Partly Cloudy 74 23.3 61 16.1 64 64 ENE 6 9 30.04 1017 8 13 0.00 0.00

Powered by AerisWeather